Theta_e
335 335 334 334 336 336 335 332 331 332 332 330 329 331 332 333 334 333 333 333 332 332 331 331 329 328 329 327 325 324 324 326 328 330 329 329 329 326 326 327 325 325 326 326 326 326 325 325 325 324 323 322 322 321 319 317 315 312 312 315 317 319 320 320 320 319 319 319 319 318 319 320 320 321 321 321 321 321 320 320 321 321 321 321 321
335 336 335 334 335 336 335 333 331 330 331 330 330 330 332 333 334 334 333 333 332 332 332 331 330 329 330 328 326 325 324 325 327 329 330 329 329 327 327 326 325 326 327 327 327 327 326 326 325 324 322 320 318 317 316 316 317 318 319 321 322 323 323 323 322 321 321 322 321 320 318 319 319 320 320 321 321 321 321 320 320 320 321 321 321
335 336 336 335 335 336 335 334 332 331 330 329 330 330 331 333 335 335 335 334 333 332 332 331 330 330 330 330 328 327 325 324 325 327 329 329 329 328 327 326 326 327 327 327 327 327 326 325 325 324 322 321 319 319 319 321 323 323 324 325 325 325 324 324 324 324 323 322 322 322 320 318 318 319 319 320 320 321 321 321 320 320 320 320 321
335 335 336 336 335 336 336 334 333 332 331 329 329 329 330 333 335 335 334 334 334 333 333 332 331 330 330 330 329 328 326 325 325 327 328 328 328 328 328 327 327 327 326 327 326 326 325 324 323 323 322 322 323 324 324 324 325 325 326 326 326 326 326 326 325 324 324 324 323 323 322 320 319 319 318 318 319 320 320 320 320 320 320 320 320
335 334 335 336 335 336 336 334 333 333 332 331 329 329 330 332 334 334 332 331 333 334 334 333 332 330 330 330 329 328 327 326 327 328 328 327 327 328 328 328 328 327 327 326 324 322 322 322 323 324 324 325 326 327 326 326 326 327 327 327 327 327 327 327 326 326 325 325 324 323 323 322 321 320 319 317 316 318 319 319 319 319 319 320 320
334 333 334 335 335 335 336 334 334 334 332 332 331 330 330 331 332 332 330 330 332 334 334 334 332 331 330 330 330 330 329 328 328 328 328 327 327 328 328 328 328 327 327 325 321 320 322 324 327 327 326 328 328 328 328 327 328 328 328 328 328 328 327 327 327 326 325 325 325 324 324 323 322 321 320 318 316 316 317 317 317 318 319 319 319
334 333 334 335 335 335 334 334 334 334 333 332 332 331 330 331 331 331 330 331 333 334 334 334 333 332 331 331 331 331 331 330 329 328 328 328 328 329 328 327 325 326 327 326 323 322 326 328 328 327 327 328 329 329 329 328 329 329 328 329 328 327 327 326 325 325 325 325 325 325 324 323 323 322 321 320 318 316 316 317 316 317 319 319 320
335 334 334 335 335 334 334 334 334 334 334 333 332 332 332 331 330 330 330 332 333 333 333 333 334 333 332 331 331 331 331 331 329 328 327 328 329 329 327 326 325 325 326 328 328 327 327 328 327 327 327 328 329 329 329 329 329 329 329 328 327 326 325 324 324 324 325 325 325 325 324 324 324 323 322 321 319 316 315 317 317 318 319 319 320
336 336 335 335 334 333 333 333 333 333 333 333 332 332 331 331 331 331 331 331 333 332 332 333 333 332 332 331 331 331 331 331 329 327 327 328 329 329 326 326 327 326 327 328 330 329 327 326 326 326 327 328 329 329 329 329 329 329 329 328 327 326 325 324 322 323 325 324 325 326 324 324 324 324 322 322 321 317 314 317 319 320 320 320 321
335 336 336 336 335 333 333 333 332 332 332 332 332 331 331 331 332 332 332 332 333 333 332 333 333 332 332 331 331 331 331 331 328 326 327 329 328 328 326 327 328 328 328 328 328 329 329 328 326 326 327 327 328 328 329 329 328 328 329 328 327 326 326 325 322 321 322 323 324 325 325 324 324 324 322 322 321 315 314 318 320 320 321 322 322
334 335 335 335 334 333 333 333 333 332 332 332 333 333 333 333 333 333 332 332 333 333 332 332 332 331 331 331 331 331 330 330 328 326 328 329 328 328 326 326 328 329 329 327 327 327 328 329 328 329 328 327 327 328 328 329 328 328 328 328 327 327 326 326 323 319 319 320 321 323 324 324 324 324 323 322 318 312 316 320 320 321 322 322 322
334 334 334 334 334 334 333 333 333 334 333 333 334 334 334 334 334 333 332 332 332 332 332 332 331 331 331 330 330 330 330 330 329 327 328 328 328 328 326 326 327 328 328 327 328 328 328 328 328 328 329 329 328 328 328 329 328 328 329 328 327 327 325 323 319 315 316 317 318 320 322 324 324 324 323 321 317 315 319 321 321 323 322 321 321
334 335 334 334 333 334 333 333 334 334 334 334 334 334 334 334 334 333 333 332 331 331 331 331 331 331 330 330 330 330 330 330 329 328 327 327 328 328 327 326 327 328 328 328 328 328 328 327 326 326 327 329 329 329 329 329 329 329 329 328 328 326 321 314 310 311 313 314 315 314 318 324 324 324 324 320 318 320 322 321 322 323 321 321 321
335 335 335 334 333 334 334 334 334 335 334 334 334 334 334 334 334 333 333 332 332 331 331 331 331 331 331 331 331 330 330 330 330 329 328 327 328 328 327 326 327 328 329 328 328 328 327 326 324 324 326 328 330 330 329 329 329 328 328 327 327 324 315 307 310 317 319 319 319 314 315 323 325 324 322 318 319 322 322 322 323 322 321 321 320
336 336 336 335 334 334 334 334 334 334 334 334 334 334 334 334 334 333 333 332 332 331 330 331 331 331 331 331 331 331 330 330 329 329 329 329 328 328 329 327 327 328 329 328 327 328 327 325 324 324 326 327 329 329 329 329 328 327 328 325 322 318 310 311 318 323 323 323 323 318 317 324 325 322 319 318 321 323 322 323 322 321 321 320 320
336 336 336 336 335 334 334 333 333 333 334 334 334 334 333 333 334 334 333 332 331 330 330 331 331 331 331 330 330 331 330 330 329 328 328 329 328 328 328 328 328 328 328 328 327 327 327 325 325 325 325 327 329 329 329 329 327 326 324 319 314 309 308 317 323 323 324 323 322 320 321 325 324 320 319 321 324 322 321 322 321 321 320 318 317
336 336 336 336 336 335 334 333 333 334 334 334 334 334 333 333 334 334 333 333 332 330 330 330 331 332 331 330 330 330 329 328 329 329 328 328 328 328 328 328 328 328 327 327 327 327 326 325 326 326 325 327 328 329 328 327 325 324 320 311 306 305 309 319 323 323 324 324 322 323 324 324 322 321 322 322 321 319 320 319 317 315 312 310 309
336 336 336 336 336 335 335 334 334 334 334 334 334 334 334 333 333 333 334 334 333 331 330 330 331 331 330 330 329 328 329 328 328 329 328 327 327 327 327 328 328 327 326 326 327 327 327 326 326 326 326 328 328 328 327 325 322 322 317 306 303 305 312 321 323 323 325 323 324 325 324 323 322 322 322 320 318 317 315 312 308 305 303 302 301
333 335 336 336 335 335 335 335 334 333 333 334 334 334 334 333 332 333 334 333 333 332 331 330 330 330 329 328 326 326 328 329 328 328 328 327 328 327 327 328 328 327 327 326 327 327 327 326 326 326 326 327 328 327 326 322 316 312 307 303 303 305 314 322 323 324 325 323 323 323 323 323 323 322 321 319 316 312 307 304 302 300 300 300 299
332 334 335 335 334 334 334 334 334 333 333 334 335 334 333 333 332 333 333 333 333 333 332 331 330 330 329 328 327 326 329 331 329 328 328 327 327 327 327 327 327 327 327 327 327 327 327 326 326 326 326 326 327 326 323 318 310 304 302 303 303 304 313 322 323 324 325 323 323 323 323 323 323 322 320 319 313 305 302 300 300 299 299 298 298
332 333 334 334 333 334 334 334 333 334 334 334 335 334 332 332 331 331 332 333 333 333 332 331 330 331 330 329 329 329 330 330 329 329 328 327 327 327 328 327 326 327 327 327 327 327 327 326 326 326 326 326 326 323 320 315 309 306 303 303 304 303 310 320 323 323 324 324 323 323 323 322 321 320 318 316 308 301 300 299 299 299 298 298 298
332 332 332 332 333 334 333 333 332 332 334 334 335 334 332 331 330 330 331 332 333 333 333 332 331 331 330 329 329 329 329 330 329 329 329 328 327 327 328 327 327 327 327 326 327 327 327 327 326 325 325 325 324 322 318 312 308 306 304 303 305 303 306 315 321 322 322 322 322 322 322 321 320 317 314 311 304 300 299 298 298 298 298 298 297
332 331 331 331 332 333 334 333 331 331 332 334 335 335 334 331 330 331 331 332 332 332 332 332 332 331 330 329 329 329 330 330 330 329 329 329 327 327 327 327 327 327 326 326 327 327 326 326 326 325 325 325 324 321 315 308 304 304 304 304 305 303 303 309 315 318 318 318 319 319 319 319 317 316 313 308 301 299 299 298 299 298 297 297 297
331 332 332 332 331 331 332 332 331 331 332 333 334 335 335 332 331 331 330 331 332 332 331 331 331 331 330 330 330 330 330 331 331 330 329 329 328 327 327 327 327 326 326 326 326 326 326 326 326 325 325 324 324 321 317 309 303 302 304 304 304 303 302 304 307 309 309 310 313 316 319 318 314 312 309 304 299 300 301 300 299 298 298 298 297
331 331 332 332 331 330 330 331 331 332 332 333 333 334 334 332 331 330 330 332 331 331 331 330 330 331 330 330 330 331 331 331 330 330 329 329 329 328 327 327 327 326 326 326 326 326 326 326 326 325 325 325 323 322 321 316 306 302 305 304 302 303 302 302 302 303 303 305 307 311 315 314 309 305 305 304 305 306 304 300 299 299 298 298 298
331 331 331 332 332 331 330 331 331 331 332 333 333 333 332 332 331 330 331 331 329 330 331 330 331 331 330 331 330 330 331 330 329 329 329 329 329 328 327 326 326 325 325 325 326 326 326 326 325 325 325 326 324 322 323 321 311 303 304 304 302 302 302 301 300 300 300 302 303 304 306 306 305 305 306 307 307 306 302 299 299 298 298 298 298
331 331 331 330 330 331 331 331 331 331 331 332 333 332 332 332 332 331 330 330 330 330 330 330 331 331 331 331 331 331 330 329 329 330 330 329 329 329 327 326 325 325 325 325 326 326 326 326 324 324 325 325 325 324 323 322 317 308 303 303 303 302 301 300 300 300 300 300 300 301 301 302 305 307 307 305 303 301 299 299 299 298 298 298 298
332 330 330 330 330 330 330 331 332 331 331 331 331 332 333 332 331 331 331 331 331 330 330 329 330 331 331 331 331 331 330 329 329 330 329 329 329 329 328 327 325 324 324 325 326 326 326 325 324 323 324 324 325 325 324 322 319 312 305 303 302 301 301 301 300 299 300 299 300 300 300 301 304 306 305 303 301 300 299 299 299 299 299 299 299
332 330 330 330 330 330 330 331 332 332 331 330 329 330 333 333 332 332 332 331 331 330 329 329 330 330 332 332 332 331 331 330 330 330 329 328 328 328 328 327 327 325 324 324 326 327 326 325 325 324 323 323 324 325 324 321 316 312 308 303 302 302 301 300 300 300 300 300 300 300 300 301 302 302 302 301 300 299 299 299 299 299 300 300 300
331 330 330 330 330 330 330 330 331 331 331 330 328 329 331 332 331 332 332 331 330 330 329 329 330 330 330 331 332 332 331 330 330 330 329 328 328 328 328 328 327 327 326 325 326 327 327 325 325 324 322 323 324 324 324 321 315 310 308 303 302 302 302 300 300 300 300 300 300 300 300 300 300 300 300 300 300 300 300 300 300 300 301 302 302
331 330 330 330 330 330 330 330 331 331 330 329 329 329 330 331 331 331 330 330 330 330 329 328 328 328 329 330 331 332 331 330 330 330 329 328 328 328 328 328 327 327 328 326 326 327 327 325 325 324 323 324 323 322 323 320 314 309 306 303 302 302 302 301 300 300 301 300 300 300 300 300 300 300 300 300 300 300 300 301 302 302 303 303 304
330 330 330 330 330 330 330 330 330 330 330 329 329 328 329 330 331 330 330 330 330 329 329 329 328 327 329 330 331 331 331 331 330 329 329 328 328 328 328 328 327 327 327 326 327 326 324 324 324 323 323 324 323 322 322 320 315 309 304 302 303 302 302 301 300 301 301 301 301 301 300 300 300 300 300 300 300 301 302 303 304 304 305 306 305
330 330 330 330 330 330 330 330 330 330 330 329 329 329 329 330 330 330 330 330 330 329 329 329 328 327 328 330 331 331 331 331 330 330 329 328 328 328 329 328 328 327 326 326 327 326 322 321 322 321 322 324 323 322 323 320 316 311 306 302 302 302 302 301 301 301 302 303 302 301 301 301 301 301 301 301 302 303 305 306 306 307 307 307 307
329 330 330 330 330 330 331 331 330 330 330 330 330 330 330 330 330 330 330 330 330 329 329 328 327 327 329 330 331 331 330 331 330 330 329 329 329 329 329 329 328 327 326 325 326 326 322 319 318 318 321 323 322 321 321 319 317 313 308 304 303 302 302 302 301 301 303 304 304 303 303 303 302 302 303 303 305 306 307 308 308 308 308 308 307
329 329 329 330 330 330 330 331 330 330 330 329 330 330 330 330 330 330 330 330 330 329 329 328 327 328 330 331 331 331 330 331 330 330 330 329 329 329 329 329 328 327 326 325 325 326 323 319 316 316 319 321 321 320 318 317 316 315 312 307 304 303 303 303 302 301 303 305 306 305 305 305 305 305 306 306 307 308 309 309 309 309 308 308 308
329 329 329 329 330 330 330 330 330 330 329 329 329 329 330 330 330 330 330 330 330 329 329 328 328 328 331 331 331 330 330 331 330 330 330 329 328 329 329 329 329 327 326 325 325 325 324 321 317 315 316 317 318 317 316 315 314 314 314 311 307 303 303 303 303 302 302 304 305 306 307 307 307 308 308 309 309 309 309 309 309 309 308 308 308
329 329 329 329 329 330 330 330 330 330 329 329 329 329 330 330 330 330 330 329 329 329 329 329 328 329 331 332 331 330 330 330 330 330 330 329 328 328 329 329 329 328 326 325 324 323 324 323 318 314 313 314 314 314 314 314 313 313 313 312 309 306 303 303 303 303 302 302 304 306 307 307 308 308 309 309 309 309 309 309 309 309 308 308 308
329 329 329 329 329 329 330 330 330 330 330 329 329 329 329 329 330 330 329 329 328 329 330 329 328 330 332 332 330 330 331 330 330 330 330 329 328 328 329 329 329 328 326 325 324 323 323 323 319 314 313 313 313 313 312 312 313 313 313 312 311 309 305 303 303 303 303 303 303 303 305 306 307 307 308 308 308 308 308 308 308 308 308 308 307
328 328 329 329 329 329 330 330 330 330 330 329 329 329 329 329 330 330 329 328 328 329 329 328 328 330 332 331 330 331 331 331 330 331 330 329 329 329 329 329 329 328 327 326 324 321 320 321 319 317 315 313 313 313 312 311 312 312 313 313 312 310 307 305 304 304 304 304 304 303 303 304 304 305 305 306 306 306 306 306 306 306 306 306 306
327 328 328 328 329 329 329 329 330 330 329 330 330 329 329 329 330 330 329 329 328 328 328 327 326 328 330 330 330 330 331 331 331 331 331 330 329 329 329 329 329 329 327 327 324 320 319 320 320 318 317 315 313 312 310 310 311 311 312 312 313 312 310 307 305 305 305 304 304 304 304 304 304 304 304 304 305 305 305 305 306 306 306 307 307
326 327 327 328 328 328 329 329 329 329 329 329 329 329 330 330 330 330 329 329 329 328 327 326 325 327 329 330 330 330 330 330 330 330 330 330 329 329 329 329 328 329 328 327 325 322 321 321 319 317 317 316 315 313 311 311 312 313 311 310 311 312 310 309 307 306 306 305 305 305 305 306 305 305 305 306 307 307 308 308 309 309 310 310 310
325 326 326 327 328 328 328 328 328 328 328 329 330 329 330 330 330 330 330 329 328 327 326 325 325 328 330 330 329 330 330 329 329 329 329 329 328 328 328 327 327 328 328 327 326 324 324 322 319 317 317 318 317 315 314 313 312 312 311 309 310 311 310 309 310 309 308 308 307 307 308 308 307 308 308 309 309 310 311 312 313 313 313 313 313
325 325 326 326 327 327 327 327 327 328 328 330 330 329 330 330 330 330 329 328 327 327 326 325 325 327 330 329 329 329 328 328 328 328 328 328 328 327 327 327 326 327 327 327 326 325 325 324 321 319 319 320 319 316 315 313 311 310 311 310 310 311 311 311 313 313 311 309 309 310 311 311 309 310 311 312 312 314 315 315 315 315 315 315 314
325 325 325 326 326 326 326 326 326 328 329 329 329 329 329 329 330 329 328 328 328 326 326 326 327 328 328 328 327 327 327 327 327 327 328 328 327 326 327 326 326 326 327 327 326 324 324 324 322 320 320 320 317 314 313 312 310 310 310 310 310 312 312 312 314 315 312 309 310 312 313 313 312 312 313 314 315 315 315 315 315 315 315 315 314
323 324 325 325 325 324 324 325 326 327 328 328 328 328 329 329 329 328 328 328 328 326 325 327 327 326 325 325 325 325 326 326 326 327 327 328 327 326 326 326 326 326 325 325 325 324 324 323 321 319 319 319 317 316 314 310 309 310 311 310 311 312 313 313 314 314 311 309 310 313 315 315 314 315 316 316 316 315 315 315 315 314 314 314 313
318 320 320 321 320 320 321 322 324 326 327 328 328 328 328 328 327 328 327 326 326 325 326 326 325 324 324 323 324 325 326 326 326 326 327 327 326 324 323 324 324 324 324 324 323 322 321 320 319 318 319 318 317 317 315 310 309 311 312 312 312 312 312 313 313 312 312 312 313 315 317 317 316 315 316 316 315 314 314 314 313 313 313 313 312
311 312 313 313 314 314 315 316 318 320 323 325 327 327 326 326 326 326 325 324 324 324 325 324 324 324 323 323 323 325 326 326 325 325 326 326 324 322 320 320 320 320 321 322 322 322 319 318 318 318 317 315 313 313 311 309 310 312 313 313 313 313 313 314 314 314 314 315 314 315 318 318 315 315 316 316 314 314 314 313 311 311 311 311 311
307 308 308 308 309 310 312 313 313 314 316 319 323 325 325 324 324 324 323 323 323 323 324 323 323 324 323 323 324 325 324 324 324 324 325 324 322 319 317 315 314 315 315 316 317 317 317 316 315 315 314 313 313 313 313 313 314 315 315 316 316 316 317 318 318 317 315 313 313 314 316 317 315 313 315 314 313 313 313 312 310 310 311 310 309
304 305 306 307 307 308 310 311 312 312 313 314 317 321 323 323 322 322 322 322 322 322 323 323 323 323 323 323 323 323 322 322 322 322 322 321 318 315 313 312 311 312 313 313 314 314 314 314 314 315 315 315 315 316 315 315 315 315 317 318 316 316 318 319 319 317 314 312 311 311 313 314 313 312 312 312 311 311 312 311 309 309 309 307 305
302 303 305 307 307 307 308 309 309 308 311 313 315 318 321 321 321 321 321 321 322 321 321 321 322 322 322 321 320 321 320 321 321 319 318 317 315 312 311 311 310 309 310 311 312 313 313 313 313 313 313 312 312 311 311 311 311 312 314 314 313 314 315 315 316 315 313 310 309 309 311 312 312 310 310 309 310 310 310 309 308 308 306 304 303
302 301 304 306 306 306 306 307 306 306 308 311 315 317 318 320 321 321 321 321 320 319 319 319 320 320 320 318 317 319 319 318 316 315 314 314 313 313 313 312 310 307 307 308 309 309 310 310 309 309 308 307 307 306 306 306 306 307 308 307 308 310 312 311 311 311 311 310 307 307 309 310 309 308 307 307 308 309 308 307 306 306 305 304 303
Wind_Speed
13 12 11 11 11 10 10 12 12 10 9 14 17 17 16 14 14 15 15 15 15 14 13 11 10 10 10 10 10 9 8 8 8 8 7 7 7 6 7 6 5 7 7 6 6 6 6 6 7 7 6 7 7 6 6 8 10 13 15 16 16 16 16 16 16 14 13 12 12 12 12 12 13 13 13 13 14 14 14 14 15 15 15 15 16
15 13 11 11 11 11 12 13 14 12 11 13 16 17 16 15 14 14 14 14 14 14 13 12 11 9 9 9 9 8 7 7 7 7 7 6 7 6 5 5 6 8 6 5 6 6 6 7 6 6 6 7 7 7 9 11 13 15 16 17 16 16 15 15 15 14 12 11 11 12 12 13 13 13 13 13 13 13 13 14 14 15 15 15 15
15 13 11 11 11 12 11 13 14 13 13 13 14 16 17 15 12 12 12 13 13 13 12 12 11 10 9 8 8 8 7 6 6 6 6 6 7 6 4 5 6 7 6 5 6 6 6 7 6 7 8 8 8 9 12 14 14 15 15 15 14 13 13 13 13 12 11 10 10 10 11 12 12 12 12 12 12 12 12 13 13 14 14 15 15
14 13 11 10 11 12 11 13 14 13 13 13 13 15 16 15 13 11 10 11 12 13 12 11 11 11 10 9 8 7 7 6 6 5 5 6 6 6 5 5 4 5 6 6 7 6 5 6 7 8 9 9 9 10 11 13 12 12 12 11 10 9 9 9 10 11 10 10 10 10 10 11 11 11 11 11 11 11 12 12 12 12 13 14 15
14 13 11 10 11 12 12 13 14 13 14 14 13 13 15 15 14 12 10 10 12 12 12 11 10 10 10 9 8 8 7 6 6 5 5 5 5 5 5 4 4 4 5 5 5 5 6 8 8 9 9 9 9 8 9 9 8 8 8 8 7 6 6 6 7 8 8 8 8 9 9 9 10 10 10 10 11 11 11 11 11 12 13 14 14
14 14 12 10 10 12 13 13 14 14 15 15 14 13 13 14 15 13 11 10 10 11 12 11 10 10 10 9 7 7 6 6 5 5 5 4 4 4 4 4 5 5 5 5 5 6 8 9 8 7 8 8 8 7 7 7 6 6 6 6 5 5 5 5 4 5 6 7 7 7 7 8 9 9 10 11 11 11 11 10 11 12 13 14 14
14 14 12 11 10 12 14 13 13 14 15 16 15 14 13 13 14 14 12 10 8 8 9 9 9 8 8 7 6 6 5 5 5 5 5 4 4 3 3 4 5 6 7 6 6 8 8 7 6 6 7 6 6 5 5 5 5 4 5 4 4 4 5 5 5 4 4 5 6 6 7 7 8 9 9 10 10 10 10 10 11 13 13 14 14
15 14 13 12 11 12 14 13 13 14 14 16 15 14 13 13 13 13 12 10 7 7 8 7 7 7 6 6 6 6 5 5 5 6 5 5 5 4 4 5 5 6 7 7 7 7 6 6 6 5 5 5 4 4 4 4 4 3 3 3 4 5 6 6 6 5 4 4 4 4 5 6 7 8 8 9 9 8 9 11 14 15 15 15 13
17 15 14 13 13 13 14 13 13 14 14 15 16 15 13 13 12 12 12 11 8 8 8 8 7 6 6 6 6 6 6 5 6 6 5 5 5 4 5 6 6 7 7 7 6 5 4 4 5 5 4 5 4 3 3 3 2 1 1 3 5 6 7 6 6 6 5 5 4 4 4 5 7 7 7 8 8 8 10 14 15 14 13 13 12
18 17 16 15 15 15 16 15 14 14 14 15 15 15 14 14 12 11 12 12 9 9 9 8 7 6 6 6 6 6 6 6 6 6 6 5 5 4 5 7 7 7 6 6 5 4 3 3 4 4 5 5 4 4 3 2 1 0 1 4 6 7 7 5 4 5 6 4 4 4 4 5 7 7 7 8 7 8 12 15 14 13 12 11 11
20 19 18 17 16 17 18 17 16 15 15 15 14 14 14 14 13 12 12 10 8 9 9 8 7 6 6 5 6 6 6 6 6 6 6 7 6 5 6 7 7 6 6 6 5 4 4 3 4 4 5 6 6 5 4 3 3 1 2 5 6 6 6 3 1 3 4 3 4 5 5 6 7 6 7 7 8 10 14 15 13 11 11 11 12
22 21 19 18 18 19 20 19 17 16 17 17 14 14 14 14 13 13 12 10 8 8 9 9 8 6 5 5 6 6 5 6 7 7 7 7 7 6 7 8 8 7 7 6 4 3 3 4 4 3 4 5 5 5 5 4 3 2 4 6 6 5 3 2 1 2 3 3 4 4 5 7 7 6 7 8 8 11 14 13 11 10 11 11 11
23 22 20 20 19 20 22 20 18 17 17 18 17 15 14 14 13 12 13 12 10 10 10 10 9 7 6 5 5 5 5 6 7 7 8 8 7 7 8 9 9 8 7 7 4 3 3 3 3 2 2 2 2 3 3 2 2 4 5 6 6 3 2 2 4 4 4 4 4 5 6 7 8 7 8 8 10 12 12 11 10 10 10 9 10
24 23 21 20 20 21 22 23 20 18 17 18 18 17 16 15 14 13 12 12 11 11 12 11 9 9 8 6 4 4 5 6 7 7 8 8 7 7 8 11 11 8 8 7 5 3 3 3 2 1 1 1 1 1 2 4 6 7 7 7 5 3 3 5 7 7 5 5 5 6 9 9 9 9 8 9 10 10 9 9 9 9 8 8 9
25 24 22 20 20 20 23 25 23 20 18 17 18 18 17 16 16 15 12 11 10 11 13 11 10 10 9 5 4 4 4 5 6 7 8 8 8 8 7 11 12 10 9 8 6 4 2 2 2 1 2 2 3 4 5 7 8 8 8 6 3 3 6 9 9 7 6 6 6 8 11 11 10 10 9 9 9 8 8 8 8 7 6 6 7
22 22 20 19 18 20 23 26 24 22 19 18 17 17 18 18 16 16 14 13 11 10 12 11 11 11 8 4 4 4 3 5 7 7 7 7 7 8 7 8 11 10 9 8 6 5 2 2 1 1 3 4 5 6 7 7 7 6 4 3 3 5 9 11 9 7 8 8 9 11 12 12 11 10 10 9 8 8 8 7 6 5 4 5 5
18 18 17 15 17 20 23 25 23 22 21 21 20 16 18 19 17 18 16 14 13 11 12 13 13 12 8 4 3 3 4 5 7 6 7 8 7 8 8 8 10 10 9 9 8 5 3 2 2 1 3 5 6 7 7 7 6 5 3 2 3 6 11 13 8 6 8 9 11 13 12 12 11 11 10 9 8 7 6 5 4 4 4 4 5
14 15 14 13 15 18 21 24 24 22 21 23 24 20 22 22 18 17 16 14 13 13 13 15 14 13 11 8 4 2 3 7 7 4 6 8 7 8 8 9 10 10 9 9 8 5 4 3 1 2 5 5 6 6 6 5 4 4 3 3 5 8 12 13 7 6 9 9 10 12 11 11 11 11 10 9 8 6 5 4 3 4 5 5 6
15 13 12 11 12 14 19 23 24 24 21 21 23 24 26 23 18 17 17 16 15 14 15 16 15 14 14 11 6 3 6 8 6 4 6 6 6 7 8 8 9 9 10 9 8 6 5 4 2 5 7 6 5 5 4 3 3 3 3 4 6 9 12 13 8 7 8 7 9 10 10 10 9 9 9 7 6 5 4 4 4 5 6 6 6
18 15 13 14 16 17 19 21 22 22 21 21 22 23 23 20 19 21 18 16 16 14 15 17 16 15 15 12 7 5 8 7 5 6 5 5 7 7 7 8 9 10 10 9 9 8 6 5 4 6 7 7 5 4 4 3 2 3 4 5 6 8 12 14 10 7 8 8 8 9 9 8 7 7 6 4 5 5 5 5 5 6 6 7 7
19 18 17 19 22 23 22 23 23 21 20 21 22 22 22 19 22 24 19 16 16 15 15 17 17 16 16 14 8 7 9 6 5 7 5 4 6 7 8 8 9 10 11 9 9 8 7 6 6 7 7 7 6 4 4 3 3 4 5 5 5 8 13 14 12 9 8 8 8 8 8 7 5 5 4 3 4 4 5 5 5 6 6 7 7
17 19 20 21 22 24 24 25 26 24 21 20 20 20 21 21 24 24 19 17 16 15 15 16 16 15 16 16 13 11 10 8 8 8 6 5 5 6 10 11 9 9 10 10 9 8 8 7 7 8 8 7 6 5 4 3 4 5 4 4 5 8 12 14 13 11 9 8 8 8 7 6 4 4 4 3 4 4 4 5 6 6 7 7 7
15 17 21 21 21 22 25 26 26 26 23 21 20 18 17 21 24 23 19 18 16 15 16 15 14 15 16 17 17 15 13 10 11 11 9 7 5 6 10 12 11 10 9 10 10 8 8 8 8 9 8 8 7 6 4 4 4 5 4 3 5 7 10 12 13 12 10 8 8 7 6 6 5 5 4 3 2 3 5 6 6 6 7 7 7
15 17 20 21 20 21 23 23 24 25 24 21 20 16 14 17 20 20 18 18 16 14 16 16 15 14 15 17 17 17 15 11 10 11 9 8 7 6 8 11 10 9 9 9 9 9 8 8 9 9 8 8 8 6 5 4 5 5 4 4 5 7 8 10 11 11 9 8 8 8 7 6 5 5 3 2 2 3 5 5 5 5 6 7 7
17 18 19 22 23 22 22 20 20 23 23 22 19 15 13 14 15 18 18 17 15 14 15 16 16 15 15 16 17 17 16 12 10 10 9 8 7 6 8 10 9 9 10 9 9 9 8 9 9 9 10 9 8 7 5 5 5 6 5 4 5 6 7 7 8 8 7 7 7 8 8 7 5 3 3 2 3 4 5 5 4 4 5 6 7
17 19 20 23 25 24 23 23 22 21 22 25 22 18 17 17 16 18 18 17 17 17 16 16 16 16 15 15 17 17 17 16 13 11 10 9 8 8 9 9 8 9 9 10 10 9 8 9 10 9 11 11 9 8 6 5 6 6 5 5 5 5 5 6 7 7 7 7 7 7 7 7 6 5 4 5 5 5 4 4 4 4 4 5 6
16 19 21 22 23 24 24 24 24 23 24 26 24 22 21 21 19 18 17 18 20 19 17 17 18 18 17 15 16 17 19 19 16 12 11 10 10 11 11 9 7 7 8 9 10 11 10 9 10 10 10 12 11 9 7 6 6 6 6 5 5 6 5 6 6 7 7 7 7 7 7 7 7 6 6 6 5 4 4 4 4 4 5 6 6
16 18 20 21 22 23 23 24 24 25 26 25 24 23 23 21 19 17 17 19 20 20 18 17 19 20 18 16 15 17 20 21 17 14 13 11 10 11 13 11 7 6 7 7 8 11 12 11 11 11 12 12 13 11 8 7 7 7 7 7 6 6 6 6 6 7 8 8 8 7 7 7 7 7 6 6 5 4 4 5 5 6 6 7 7
15 15 17 19 20 20 20 22 24 25 24 23 23 22 22 21 19 19 21 20 16 17 18 17 19 21 18 16 15 16 19 20 18 16 14 12 11 12 13 12 9 7 6 6 8 11 14 14 12 13 15 14 13 13 10 9 8 8 8 8 8 7 7 6 7 7 8 8 8 8 7 7 8 8 7 7 6 5 5 6 6 7 7 6 6
13 15 16 16 16 17 18 19 22 23 20 20 22 21 19 19 19 20 21 20 16 16 18 16 18 21 19 16 15 14 17 20 19 18 16 14 13 12 12 12 11 9 7 6 7 10 13 14 12 12 15 17 15 13 12 11 9 8 9 9 9 9 7 7 8 8 8 9 9 8 8 8 8 9 8 8 7 7 7 7 7 6 6 5 5
13 19 18 16 15 14 15 17 21 21 19 19 22 22 18 16 16 17 17 18 19 19 18 18 20 24 21 16 15 14 14 17 19 19 17 15 14 13 12 12 11 11 10 7 6 8 11 13 12 13 15 17 17 15 14 13 10 9 10 10 10 10 9 8 9 9 9 9 9 9 9 9 9 9 9 9 8 8 7 7 7 6 5 5 4
15 19 19 16 15 13 13 16 20 21 20 20 21 20 18 15 15 16 16 17 19 18 17 17 20 23 19 16 16 14 13 15 17 18 18 16 15 13 12 12 12 11 11 9 7 6 9 11 11 13 16 16 16 17 15 14 12 10 11 12 11 11 11 10 10 11 10 10 10 10 10 10 10 10 10 9 9 9 8 7 7 6 5 5 5
17 21 20 17 14 13 13 14 17 19 19 20 20 19 16 15 15 15 16 16 17 18 17 15 16 19 18 16 16 14 14 15 15 17 18 17 16 15 13 12 13 13 13 12 9 5 8 11 9 11 17 17 15 16 17 15 14 12 12 14 14 13 13 12 12 12 12 11 11 11 11 11 11 11 10 10 10 9 9 8 7 7 7 7 7
16 19 19 17 15 13 13 14 15 16 17 18 19 19 17 16 15 15 17 17 16 18 19 16 16 18 18 17 16 14 14 15 15 16 17 17 16 15 14 14 13 14 15 13 11 7 7 10 10 11 16 18 14 15 17 17 16 15 13 14 15 15 15 14 13 13 13 13 12 12 12 12 12 12 11 11 11 10 10 9 9 9 9 9 10
14 15 16 16 15 14 13 13 14 15 16 16 17 18 18 17 17 18 19 18 16 19 21 19 19 20 18 17 17 15 14 15 15 15 15 17 17 14 14 15 13 14 15 14 12 10 8 9 11 11 15 18 15 14 17 17 17 16 14 14 15 16 16 15 14 15 15 15 14 13 13 12 12 13 12 12 12 12 11 11 11 11 12 12 13
14 14 14 15 16 16 15 14 15 14 15 16 16 18 17 16 17 18 19 18 17 19 21 18 18 20 18 17 17 15 15 15 16 14 13 16 18 17 16 15 14 13 16 16 13 11 9 9 10 10 13 17 16 15 17 16 16 17 16 16 16 16 16 16 15 16 16 16 15 15 14 14 14 14 14 14 14 13 13 14 14 15 15 15 16
16 15 16 16 16 16 16 15 16 15 15 16 16 17 16 15 16 17 18 18 15 18 20 18 18 20 18 17 17 16 15 16 17 15 13 14 17 18 17 15 14 14 15 17 15 12 11 9 10 10 11 13 14 15 17 16 15 17 18 18 17 17 17 18 17 16 16 16 17 17 16 16 16 16 16 16 16 16 16 17 17 18 19 19 20
17 17 17 17 16 16 16 16 16 16 16 15 15 16 16 15 16 18 19 18 16 18 20 18 19 19 17 17 17 16 16 17 17 15 14 14 16 17 18 16 14 13 14 16 14 12 11 8 8 10 11 11 12 13 15 16 14 14 16 17 18 18 18 19 18 17 17 17 18 18 18 18 18 18 18 18 19 19 19 20 21 22 22 23 24
16 17 17 16 16 17 17 17 17 16 16 15 15 15 15 16 18 19 18 17 16 19 19 18 19 19 17 18 19 17 15 15 16 15 14 15 14 14 16 16 15 14 14 14 12 11 11 9 7 8 10 11 10 9 12 14 14 13 12 13 14 16 19 19 19 18 18 18 18 18 19 19 19 20 20 21 21 21 22 23 24 25 25 26 27
18 18 18 17 16 17 18 17 17 16 16 15 16 16 15 15 16 18 18 16 15 16 17 18 21 20 17 18 18 16 15 15 15 14 14 15 14 12 13 14 14 14 13 12 10 11 14 14 11 9 8 9 10 8 9 12 12 12 14 14 12 11 15 17 18 19 18 18 18 18 18 18 19 20 21 21 22 22 23 24 25 26 27 28 28
18 19 20 19 17 18 18 18 17 16 15 16 17 18 17 16 16 18 20 18 14 12 13 17 21 19 16 15 15 14 13 13 13 13 13 15 14 13 14 15 14 13 12 12 11 12 15 14 10 9 8 8 9 10 11 13 13 11 14 18 14 9 10 12 14 17 18 17 17 17 17 18 18 18 20 21 21 20 20 21 22 22 22 22 23
18 19 21 21 19 17 17 18 18 17 18 20 22 22 21 19 19 18 19 18 16 13 13 16 18 16 14 14 14 13 11 11 11 11 11 12 12 14 14 16 16 14 12 13 13 13 14 12 12 11 10 9 10 12 12 14 14 11 11 15 14 9 9 10 10 13 15 14 14 14 14 15 15 15 16 17 17 16 16 16 16 16 16 16 17
19 20 22 23 22 20 19 19 21 23 24 25 24 23 21 20 18 17 16 17 18 17 16 17 15 14 15 14 13 12 11 10 10 10 10 9 11 13 13 14 17 17 15 14 13 13 13 13 14 15 12 10 11 12 11 11 14 13 12 13 12 9 9 8 7 7 7 8 8 8 8 10 11 11 11 12 11 11 11 11 11 12 12 13 13
21 23 24 25 25 25 24 23 25 28 28 26 24 22 21 19 16 15 15 16 17 17 17 17 16 15 15 14 13 12 11 10 11 11 12 11 12 13 13 14 16 18 17 16 14 13 13 13 15 15 13 10 9 10 10 12 14 13 12 12 11 9 9 9 6 4 4 5 5 5 6 9 10 9 9 8 7 7 8 8 9 11 11 12 13
19 22 25 26 25 26 27 27 27 28 28 26 23 21 20 19 16 16 16 18 18 18 19 19 18 15 15 14 13 12 10 11 11 12 13 14 13 13 13 12 13 14 15 15 14 14 14 14 15 16 15 11 7 7 9 13 14 12 11 11 11 10 9 8 5 3 4 6 5 5 7 7 6 7 6 5 5 8 10 10 11 12 13 14 16
10 13 16 19 20 21 23 24 25 27 27 25 22 21 21 20 18 18 18 19 19 20 20 19 17 15 15 14 13 12 11 11 12 13 14 15 14 12 11 10 11 11 12 13 13 13 13 14 15 15 14 11 9 9 12 13 13 11 10 10 10 10 8 6 4 3 4 5 4 4 6 4 3 5 4 4 6 8 10 12 13 13 14 15 15
2 2 5 7 11 14 15 17 18 21 23 23 23 22 21 20 19 18 18 18 19 19 19 18 17 17 16 13 11 11 11 11 12 13 15 16 14 12 12 11 10 10 10 11 12 13 13 13 14 14 12 9 8 10 11 12 11 9 8 8 8 8 6 5 4 4 3 4 5 4 5 3 2 5 5 5 8 8 8 11 13 12 12 12 11
8 6 6 6 6 8 10 12 12 12 15 19 22 22 20 19 19 18 18 19 20 20 20 19 18 17 15 13 11 11 11 11 12 12 14 16 16 15 16 15 13 12 10 7 8 11 12 12 12 11 10 9 9 10 11 11 10 9 8 8 7 7 6 4 5 6 4 2 4 3 5 4 4 6 6 6 9 8 6 9 11 10 8 9 11
15 15 14 14 13 13 12 11 10 9 10 13 18 20 19 18 18 19 20 21 21 22 22 21 19 17 15 14 13 12 12 12 12 13 15 16 18 20 22 21 18 17 19 18 14 13 14 14 15 15 13 12 12 12 12 11 11 10 8 6 6 5 3 3 3 5 4 2 1 1 3 5 5 7 7 7 8 7 5 6 9 9 10 13 15
18 18 20 22 21 20 20 17 14 13 12 13 16 18 18 16 17 19 22 23 23 23 23 21 19 18 16 15 14 14 14 14 15 16 16 18 22 25 26 25 22 20 20 21 22 20 19 18 17 16 14 12 11 11 11 10 9 9 7 6 5 3 1 1 1 3 4 3 2 2 2 4 4 5 7 8 6 4 4 5 8 10 13 16 17
21 21 25 27 26 25 25 21 17 16 16 15 15 16 17 17 18 20 22 23 23 23 22 20 19 18 17 17 16 16 16 17 19 20 19 20 22 22 20 20 23 22 20 21 22 21 20 19 18 17 15 13 12 12 11 10 9 8 7 7 6 4 2 2 1 0 2 2 3 3 2 3 4 4 6 7 5 3 4 6 10 11 13 15 16
Wind_Direction
186 188 192 190 185 182 181 179 171 165 163 166 168 166 164 160 152 149 150 153 153 152 150 146 145 139 133 131 128 126 124 126 129 127 123 121 123 131 138 142 132 121 118 120 120 119 110 108 112 113 115 112 110 113 110 103 99 99 98 97 95 93 90 88 87 88 88 85 82 83 84 83 80 78 76 74 73 74 73 72 71 72 71 69 66
188 190 193 195 189 185 186 184 178 172 165 165 170 168 166 164 156 151 149 151 154 154 153 152 152 147 141 136 132 131 130 132 134 134 131 127 124 126 137 138 128 124 121 121 123 122 118 120 124 120 114 108 112 113 107 103 101 100 97 94 91 90 90 88 88 88 88 89 86 86 86 86 85 83 82 79 76 75 75 74 73 73 73 71 68
191 193 193 193 189 188 189 188 185 179 172 169 170 169 168 168 162 157 153 154 156 156 158 159 158 157 153 148 142 140 139 144 147 142 136 132 128 126 135 137 128 127 132 133 133 134 134 136 134 124 117 111 109 106 104 103 101 99 95 91 88 88 89 87 88 86 83 82 82 85 86 88 89 88 88 86 83 80 78 77 77 75 74 72 71
194 196 195 191 189 191 192 191 192 188 181 176 172 169 168 169 167 162 158 157 157 159 164 164 165 165 165 162 156 151 150 155 157 151 145 139 134 130 131 131 129 141 150 152 155 156 150 146 140 129 124 118 113 112 109 105 102 100 97 93 91 90 88 87 90 87 83 79 78 82 83 86 89 89 90 90 89 87 84 84 83 80 77 76 75
198 200 196 193 190 192 193 194 196 197 193 187 181 174 168 168 168 168 168 165 163 165 169 170 173 174 176 174 167 164 162 165 166 159 154 146 138 136 134 134 134 148 155 160 168 168 149 132 128 127 126 124 126 125 116 108 106 101 93 89 86 85 84 86 91 90 88 84 82 83 82 86 88 87 86 87 89 91 91 88 87 86 80 78 76
201 203 197 194 190 193 198 200 202 204 202 197 192 185 176 170 171 173 175 174 172 172 175 178 179 180 183 182 175 173 169 170 173 166 160 154 146 139 136 142 145 146 150 159 156 143 133 123 124 134 136 140 141 132 116 107 106 96 85 79 72 72 76 78 82 90 98 98 94 91 88 88 85 81 79 80 84 87 89 87 88 90 84 79 75
201 204 201 196 190 196 202 203 205 207 206 206 202 195 188 180 177 180 179 177 175 176 179 180 179 178 183 184 180 178 173 175 179 173 169 162 153 151 149 151 151 149 150 153 146 137 132 128 140 150 146 151 151 138 126 114 108 100 90 76 65 78 86 81 78 85 104 111 105 94 90 84 74 70 70 73 79 85 88 86 88 91 90 85 76
203 205 204 202 198 199 202 201 204 207 207 210 209 203 195 187 183 186 185 179 173 177 180 178 177 176 179 184 185 185 180 180 180 177 175 168 164 166 161 151 149 152 152 150 143 141 147 148 159 166 159 164 166 153 142 127 118 113 98 86 86 95 95 86 85 88 93 101 108 104 93 86 77 71 68 68 74 84 90 93 94 93 91 88 77
205 206 205 205 205 205 204 201 202 205 207 209 211 209 201 192 186 185 192 190 176 174 177 177 178 177 180 183 185 187 188 187 185 182 178 175 174 173 167 160 162 162 156 151 144 142 160 177 186 189 183 183 192 192 170 156 151 142 68 92 102 101 94 84 84 94 100 93 103 120 109 100 93 82 76 72 68 73 91 101 102 94 88 83 75
208 209 206 206 208 208 206 203 201 201 204 206 208 207 203 199 191 181 191 194 181 175 177 176 177 177 180 184 188 189 191 191 189 187 182 182 183 181 181 175 176 176 168 164 162 165 180 206 215 220 225 215 218 232 231 231 212 92 60 109 115 108 95 77 81 109 117 102 96 107 109 115 110 94 86 76 64 76 99 107 104 93 84 79 76
209 210 206 205 207 206 205 204 203 202 205 207 205 204 202 200 194 183 183 186 179 175 173 170 169 172 174 178 188 193 195 196 198 193 186 188 191 197 199 192 190 189 184 181 186 201 211 223 230 234 244 241 240 249 259 272 281 293 138 133 122 110 99 79 90 130 131 121 113 107 106 122 124 110 97 82 72 91 107 107 98 88 80 77 78
211 211 207 206 207 206 206 205 205 207 213 215 210 205 200 195 191 181 172 167 167 171 167 163 155 150 167 178 192 201 205 206 205 198 191 194 201 207 206 201 202 200 196 196 199 218 231 240 240 229 243 253 250 250 257 264 260 214 150 133 121 108 100 92 95 112 119 127 135 133 120 122 130 119 101 92 90 102 108 102 92 85 77 72 71
216 214 209 207 209 207 207 208 210 213 220 223 217 207 199 193 186 178 171 165 165 170 166 159 150 144 157 169 188 203 209 211 208 203 201 204 210 216 214 208 206 204 204 209 209 221 239 251 250 231 233 247 240 246 248 224 179 154 130 116 112 98 68 81 82 71 78 100 127 151 142 128 129 119 104 103 105 106 105 97 90 86 79 70 61
221 218 213 209 209 209 209 211 214 217 222 226 220 208 198 192 183 176 177 175 172 174 171 166 167 166 161 157 165 184 199 208 205 204 204 205 211 222 224 218 212 206 208 212 213 221 239 259 265 244 217 184 151 161 143 133 134 132 118 108 106 86 64 77 78 70 73 93 113 138 141 133 128 120 113 114 110 104 98 92 90 88 81 70 58
223 221 218 213 210 209 211 213 216 219 221 223 220 208 198 194 188 180 176 177 176 177 181 183 181 169 162 170 167 162 186 194 195 206 208 206 213 222 226 221 215 210 209 210 212 218 233 256 260 222 191 158 132 128 127 131 135 130 122 123 114 84 82 79 74 72 80 99 113 128 133 131 128 122 116 113 108 101 96 91 89 86 76 64 54
220 218 217 214 211 212 216 217 220 223 221 217 213 205 200 197 192 187 179 175 175 179 189 190 181 168 161 177 169 170 203 192 190 205 208 207 211 218 224 215 207 205 203 203 206 213 215 219 229 206 173 150 134 130 132 132 132 128 128 140 111 89 92 85 78 81 87 99 114 122 127 127 128 125 117 112 108 96 89 82 74 70 55 46 47
223 219 217 213 212 214 220 223 224 225 222 218 212 202 203 201 195 194 190 184 179 179 188 190 187 180 167 159 162 198 226 189 182 190 197 204 204 210 218 204 195 196 197 196 200 202 191 188 212 184 152 145 140 137 137 133 124 122 129 129 101 98 97 90 82 90 97 105 114 119 125 129 128 123 117 110 97 83 73 64 49 41 41 48 60
233 225 222 218 216 215 220 226 229 227 222 219 215 209 210 207 198 197 197 193 183 175 184 190 194 192 182 174 175 227 207 181 184 181 186 202 205 208 211 199 195 198 195 192 193 192 181 184 198 164 153 147 148 142 136 132 127 135 140 119 107 108 105 101 97 99 105 110 115 122 126 126 125 121 116 99 77 67 58 48 43 51 63 70 74
253 243 235 228 226 222 221 227 232 232 228 220 216 217 220 214 201 200 200 197 190 181 184 187 192 199 196 192 192 198 180 181 200 193 180 195 200 205 206 200 201 203 200 193 191 190 180 177 169 160 160 159 159 147 136 135 138 144 135 117 112 115 118 119 120 113 114 114 114 121 123 119 122 122 114 90 65 59 55 58 66 71 73 73 74
261 252 242 232 230 229 224 227 233 234 230 225 221 220 222 218 209 208 203 197 197 191 187 187 190 198 201 201 200 184 179 190 210 199 190 186 183 192 195 197 207 208 204 197 193 192 178 169 167 165 165 168 166 155 157 162 150 142 133 123 118 123 130 131 129 119 115 115 115 120 123 123 129 127 115 85 62 60 64 74 78 78 77 75 75
253 244 237 233 233 233 231 229 231 230 227 227 225 222 221 218 212 211 205 200 202 198 192 191 194 196 194 195 191 178 184 199 204 196 199 184 178 185 178 184 206 211 207 200 194 190 178 171 171 171 170 172 174 172 177 172 151 150 144 136 126 128 139 140 136 131 126 125 125 125 127 131 138 139 125 86 67 71 78 86 87 85 83 82 80
252 251 247 243 239 238 238 236 232 229 229 229 225 223 223 214 209 210 207 204 205 203 200 193 194 198 193 190 189 186 189 196 200 197 197 189 191 193 183 185 197 199 203 205 198 188 182 179 173 174 175 176 181 184 187 177 158 161 154 145 136 134 145 149 146 147 149 148 139 129 130 138 143 143 126 84 73 84 93 96 94 92 90 86 84
251 256 254 249 242 239 239 238 235 230 231 230 223 220 216 207 209 212 207 207 208 207 206 199 194 197 197 196 195 195 195 194 194 192 190 192 192 187 187 194 198 192 197 205 201 192 187 184 181 181 181 182 189 189 184 179 168 166 163 151 142 140 148 155 157 161 168 173 167 148 139 143 142 139 125 87 83 103 107 105 98 95 93 89 86
251 250 251 247 242 241 239 235 233 230 230 230 225 220 209 205 215 218 210 212 213 207 207 206 203 201 201 203 202 203 205 202 193 190 195 198 192 185 181 188 198 192 188 197 201 197 192 189 188 188 187 190 197 195 180 176 175 170 169 168 156 146 148 156 163 169 173 178 174 157 149 155 152 142 131 104 112 124 118 113 107 104 100 95 93
248 247 247 243 238 239 240 235 231 231 231 230 228 222 210 203 210 216 217 216 212 210 212 209 206 204 203 206 208 209 210 209 203 200 204 199 193 190 174 179 194 188 184 195 199 197 198 199 195 192 198 201 203 202 187 178 184 179 176 180 170 155 152 158 165 170 173 174 174 166 167 178 176 158 153 145 141 134 123 118 117 117 112 108 106
240 246 248 242 236 233 235 235 233 235 238 236 230 225 221 215 212 217 221 218 213 216 220 217 212 209 206 205 208 212 213 214 212 210 206 197 192 186 170 176 194 189 188 199 201 202 203 202 199 194 199 204 209 209 201 194 191 184 182 186 180 170 161 162 165 168 172 179 188 190 189 190 183 167 164 161 151 142 128 122 124 126 123 120 119
240 245 244 240 235 232 231 232 233 237 243 242 234 228 229 228 222 218 215 216 218 217 216 217 219 216 210 208 209 211 214 216 214 212 208 202 195 184 172 170 184 192 197 201 205 214 209 197 199 200 197 201 209 215 210 206 201 186 185 193 191 185 175 170 172 169 169 179 189 195 191 182 170 163 164 163 156 151 145 138 140 142 140 138 134
254 247 242 238 235 233 231 230 232 236 239 241 236 227 227 227 219 214 214 216 220 221 219 217 221 221 214 209 210 211 216 217 215 214 213 209 200 187 180 177 177 185 198 201 209 217 209 197 198 202 200 200 207 213 212 208 206 193 190 199 201 194 186 181 181 176 172 176 182 185 184 177 171 171 177 177 172 168 165 160 157 156 154 151 145
262 249 241 237 231 229 231 231 233 233 233 238 236 227 223 223 218 217 221 219 214 220 226 221 220 221 215 212 212 211 217 219 216 216 216 212 203 194 192 193 190 186 188 200 208 209 205 200 199 199 199 200 204 208 210 209 207 199 198 203 204 200 195 191 189 185 180 178 180 183 184 185 187 189 192 192 190 187 180 175 170 166 165 160 153
258 254 248 237 226 223 228 236 238 233 229 234 235 228 222 219 219 222 224 222 215 218 225 225 224 221 215 216 215 210 218 220 217 217 218 213 206 200 202 204 205 206 202 202 204 199 196 198 199 196 197 200 203 205 208 211 208 202 204 205 204 203 200 195 193 191 188 185 184 187 189 192 195 197 199 198 196 195 191 185 181 177 176 172 168
255 259 254 240 230 221 220 233 240 234 227 228 231 230 224 217 215 218 218 221 221 219 217 219 225 223 215 213 213 209 213 215 215 217 217 214 208 203 206 208 210 217 218 216 209 190 189 196 199 199 200 203 206 206 207 210 208 204 206 206 205 206 202 199 198 194 195 194 191 192 195 198 201 201 202 201 199 198 196 194 192 192 193 194 196
249 256 252 241 236 223 212 222 233 232 227 226 229 228 223 217 213 212 211 215 219 218 212 211 222 222 212 208 210 205 203 205 209 214 214 212 209 205 207 209 211 216 219 223 222 187 186 198 196 198 205 205 207 210 210 211 211 207 208 208 206 206 204 204 203 199 198 199 197 198 200 201 203 204 203 203 202 200 200 203 207 212 217 224 230
246 249 246 240 237 228 215 213 221 224 221 221 224 223 219 217 214 211 210 210 213 216 214 209 220 224 212 203 205 200 196 198 201 208 211 210 209 207 207 209 210 212 212 218 224 198 188 201 195 196 208 208 206 210 212 215 216 212 211 211 209 208 208 208 208 205 203 201 200 202 202 203 205 205 206 206 205 206 208 213 221 229 238 245 252
244 245 241 238 236 230 221 213 212 215 214 214 219 220 216 212 210 211 213 211 206 213 215 206 212 222 214 204 202 196 195 197 196 203 208 206 205 206 208 208 208 209 210 213 219 208 187 196 196 197 208 208 205 210 213 216 218 217 216 217 216 214 212 211 211 210 207 205 205 206 206 207 207 207 210 212 213 215 219 224 232 241 248 254 260
246 242 238 237 237 232 225 218 213 212 212 211 212 214 213 209 207 211 215 212 203 210 217 210 207 214 211 203 200 194 194 197 197 200 204 205 206 205 209 210 206 207 209 209 215 212 192 187 193 196 204 205 205 211 214 216 218 218 219 222 224 222 220 217 215 216 214 211 211 212 212 214 215 216 219 221 224 227 231 238 244 251 257 261 265
252 245 240 237 237 235 229 222 216 211 210 210 208 211 211 208 206 207 211 212 206 210 215 211 208 209 206 201 198 194 194 197 199 199 198 201 205 207 212 213 208 208 212 212 213 212 201 189 187 192 202 204 205 210 213 216 219 219 220 224 227 228 228 226 224 223 222 219 218 220 221 223 224 227 229 232 236 240 244 250 255 260 265 268 270
255 249 245 238 233 232 229 223 216 211 210 210 209 209 209 205 203 205 211 214 209 205 205 202 207 211 205 198 195 192 193 197 199 198 193 194 201 207 213 216 212 213 217 217 214 212 210 198 184 190 199 199 202 211 214 214 216 219 222 226 229 229 229 231 233 232 231 228 229 228 228 231 233 235 238 241 245 248 252 256 260 264 267 270 273
253 249 245 237 231 231 229 223 218 214 212 211 208 207 205 200 200 206 213 213 208 206 203 200 210 215 205 199 197 192 192 197 199 198 195 195 197 204 211 214 215 215 216 217 214 208 209 202 184 188 196 195 198 210 216 213 211 214 218 224 229 230 231 233 236 238 238 237 237 238 237 239 242 244 246 249 252 255 258 262 265 268 271 274 276
256 249 243 237 233 235 233 225 219 216 213 209 206 203 197 195 200 205 208 207 209 211 206 202 213 216 206 203 203 197 196 199 200 199 198 197 199 205 211 213 215 214 215 217 208 193 202 217 207 190 193 199 197 203 217 216 213 214 214 216 224 229 232 235 236 239 243 242 243 246 247 248 251 254 256 258 260 263 266 269 272 273 275 277 278
263 254 247 241 236 235 234 229 222 217 212 207 202 197 192 192 196 197 199 201 207 212 208 206 214 215 207 204 204 202 204 205 206 205 199 198 201 203 209 216 217 214 214 213 195 184 201 218 217 197 191 199 198 196 207 210 210 216 218 217 217 221 229 236 239 241 245 248 250 253 254 255 257 260 264 267 268 270 273 275 276 277 278 279 279
267 260 254 250 240 233 232 228 222 217 210 205 203 200 198 195 191 192 198 199 196 202 208 210 212 209 200 199 202 204 208 210 213 214 211 212 213 209 210 215 217 216 213 209 198 192 200 205 200 192 191 197 198 196 203 209 209 212 220 223 222 216 222 234 242 245 247 250 253 257 259 262 264 267 271 274 276 279 280 280 280 280 280 280 279
269 265 260 254 242 230 226 222 217 215 212 212 211 209 208 205 198 196 200 198 192 198 208 210 209 199 191 196 202 206 210 212 214 214 216 220 221 220 218 215 214 214 210 208 205 200 199 196 191 194 197 201 206 205 208 216 215 212 220 225 223 219 225 232 240 247 252 251 252 256 260 265 270 272 273 276 282 287 288 285 285 284 282 282 283
273 266 259 250 239 230 223 219 218 220 218 215 212 210 209 208 200 195 196 196 195 199 206 209 205 193 187 192 198 203 207 207 204 201 200 203 205 212 218 218 218 218 213 210 208 204 204 199 194 198 201 204 214 216 212 215 218 217 219 220 216 212 220 229 230 236 246 250 253 255 255 262 271 272 271 275 284 291 290 288 290 290 289 289 289
275 267 256 244 236 230 225 222 222 221 216 210 206 204 204 203 196 188 189 193 195 197 201 205 202 191 187 189 191 194 197 196 191 186 185 188 192 199 208 215 220 222 221 219 215 210 210 202 196 203 211 211 217 222 218 218 220 218 216 217 217 210 212 226 228 217 233 252 257 260 257 265 276 276 273 277 285 291 292 294 296 294 294 295 296
266 259 249 237 228 224 222 221 220 217 211 205 201 198 197 195 190 185 188 194 196 196 197 198 195 188 184 184 184 185 188 188 183 179 181 187 190 193 200 208 214 217 221 224 226 224 222 214 206 210 218 222 235 252 247 238 227 213 206 211 214 211 214 224 220 211 249 259 260 268 266 266 278 280 277 284 291 293 296 296 296 296 298 301 303
257 243 235 226 217 213 214 214 212 209 206 201 196 192 191 188 185 186 192 196 194 191 191 191 188 183 180 180 181 183 186 186 183 182 185 189 188 185 185 192 202 210 215 222 227 225 222 217 211 211 220 234 249 255 248 237 224 208 202 207 212 214 217 222 213 207 234 234 223 255 267 253 264 283 284 295 300 301 303 300 299 302 303 304 305
351 222 204 200 200 198 198 198 198 198 198 195 190 187 185 183 184 187 190 190 186 183 183 184 180 176 173 173 175 179 183 186 187 188 189 189 183 172 164 163 172 188 203 214 216 211 211 214 213 216 225 228 224 221 214 208 203 195 191 194 198 198 194 192 187 167 166 187 188 220 264 270 307 306 297 305 312 315 315 309 306 306 305 304 309
61 77 94 108 130 151 165 173 174 178 185 186 183 182 180 179 182 182 180 177 174 172 172 172 171 168 166 167 169 173 179 183 185 187 188 183 170 157 146 136 130 130 130 143 181 193 195 194 189 188 185 169 164 168 166 163 159 151 151 153 152 161 170 170 161 143 123 148 179 207 268 288 322 321 307 308 314 316 317 310 305 304 308 317 323
63 71 79 83 86 95 111 125 130 136 154 163 166 169 173 177 178 175 171 168 165 163 163 163 163 164 164 165 167 171 175 174 171 173 176 171 158 146 136 126 114 106 105 108 117 131 139 142 142 141 138 137 142 145 143 143 142 139 138 134 131 149 183 194 170 143 117 101 146 174 274 283 308 318 310 309 313 314 317 308 304 310 318 322 323
61 67 79 82 79 78 85 91 91 97 117 134 142 148 157 171 179 176 170 165 161 159 158 159 162 165 165 165 169 172 170 164 159 162 168 164 151 141 133 125 117 110 110 116 119 120 124 128 129 130 130 129 132 132 130 133 139 141 140 131 120 127 170 167 121 125 125 112 46 19 299 289 307 325 323 318 311 312 326 322 324 330 327 323 323
62 63 74 80 77 72 75 79 77 78 91 109 125 135 145 162 176 177 171 164 159 155 154 156 159 163 165 166 169 170 164 157 155 157 160 158 149 141 137 134 128 124 125 127 126 126 127 126 124 125 126 124 122 118 114 116 119 122 123 119 108 96 87 87 72 168 161 119 25 3 342 323 331 348 345 333 317 311 326 328 332 336 333 331 333